Notices

Please take our survey and provide feedback: https://eccc.sondage-survey.ca/f/LanguageSelection.aspx?s=442ca660-fcf1-47c0-95a9-59707d6fd709

Please note that for the Engineering Climate Datasets, IDF dataset is available through this link.  Intensity-Duration-Frequency (IDF) Files: Includes the latest version of short-duration rainfall Intensity-Duration-Frequency (IDF) statistics in the form of tables and graphs with accompanying documentation for various locations across Canada.  Current IDF files can be accessed through our station finder application or downloaded for each province and territory across Canada.  In addition, historical versions of IDF files are also available for download.  Updates of IDF files are provided approximately every two years depending on the availability of data.   Thank you for your patience as we enhance our systems.

Hourly Data Report for January 01, 2016

SAINT JOHN A
NEW BRUNSWICK

45°18'58.000" N
65°53'24.000" W
108.80 m
8104901
71609
YSJ

Download Data

Hourly Data (January 2016)
Hourly Data Report for January 1, 2016
TIME
LST
Temp Definition
°C
Dew Point Definition
°C
Rel Hum Definition
%
Precip. Amount Definition
mm

Wind Dir Definition
10's deg

Wind Spd Definition
km/h
Visibility Definition
km
Stn Press Definition
kPa
Hmdx Definition


Wind Chill Definition


Weather Definition


00:00 -0.1 -1.5 90   29 7 24.1 99.61   -3 LegendNANA
01:00 0.2 -1.6 88   26 9 24.1 99.55     LegendNANA
02:00 0.2 -1.7 87   28 10 24.1 99.52     Cloudy
03:00 0.1 -2.0 86   29 11 24.1 99.53     LegendNANA
04:00 -1.4 -3.0 89   33 16 16.1 99.55   -6 Snow
05:00 -1.6 -2.9 91   33 12 19.3 99.49   -6 Snow
06:00 -1.6 -2.9 91   31 10 4.8 99.50   -5 Snow
07:00 -1.7 -2.7 93   30 4 4.8 99.50   -3 Snow
08:00 -1.5 -2.8 91   24 8 16.1 99.48   -5 Snow Showers
09:00 -1.4 -3.6 85   30 17 16.1 99.52   -7 Snow Showers
10:00 -1.9 -4.6 82   31 15 16.1 99.52   -7 Snow Showers
11:00 -1.7 -4.9 79   29 13 24.1 99.47   -6 Cloudy
12:00 -1.3 -4.7 78   29 14 24.1 99.42   -6 LegendNANA
13:00 -0.7 -5.3 71   27 20 24.1 99.35   -6 Snow Showers
14:00 -0.6 -5.4 70   28 16 24.1 99.34   -5 Mostly Cloudy
15:00 -0.7 -5.9 68   27 14 24.1 99.30   -5 LegendNANA
16:00 -0.7 -6.5 65   28 19 24.1 99.32   -6 LegendNANA
17:00 -1.7 -7.2 66   28 12 24.1 99.36   -6 Mainly Clear
18:00 -2.6 -7.3 70   28 10 24.1 99.37   -6 LegendNANA
19:00 -3.0 -7.0 74   27 8 24.1 99.37   -6 LegendNANA
20:00 -7.2 -8.7 89   24 3 24.1 99.38   -9 Mainly Clear
21:00 -8.1 -9.3 91   36 1 24.1 99.37   -9 LegendNANA
22:00 -10.0 -11.5 89   36 2 24.1 99.33   -11 LegendNANA
23:00 -9.4 -10.9 89   19 4 24.1 99.29   -12 Clear

Notes on Data Quality.

Legend

  • E = Estimated
  • M = Missing
  • NA = Not Available*
  • [empty] = Indicates an unobserved value
Date modified: